| time (UTC) | temp C | wind direction | speed KPH | gust KPH | rain 1hr cm | rain 24hr cm | rain mn cm | humidity % | barometer mb |
| 20260906052104 | 22 | 298 | 1.6 | 6.4 | 0.00 | 0.10 | 0.00 | 86 | 1014.9 |
| 20260906051605 | 22 | 17 | 0.0 | 6.4 | 0.00 | 0.10 | 0.00 | 86 | 1014.9 |
| 20260906051103 | 22 | 0 | 0.0 | 6.4 | 0.00 | 0.10 | 0.00 | 86 | 1014.9 |
| 20260906050605 | 22 | 63 | 0.0 | 8.0 | 0.00 | 0.10 | 0.00 | 85 | 1014.9 |
| 20260906050135 | 22 | 301 | 0.0 | 8.0 | 0.00 | 0.10 | 0.00 | 85 | 1014.8 |
| 20260906045603 | 22 | 49 | 1.6 | 6.4 | 0.00 | 0.10 | 0.00 | 86 | 1014.9 |
| 20260906045102 | 23 | 0 | 1.6 | 6.4 | 0.00 | 0.10 | 0.00 | 85 | 1014.9 |
| 20260906044605 | 23 | 0 | 1.6 | 8.0 | 0.00 | 0.10 | 0.00 | 86 | 1014.8 |
| 20260906044104 | 23 | 0 | 1.6 | 12.9 | 0.00 | 0.10 | 0.00 | 86 | 1014.7 |
| 20260906043601 | 23 | 43 | 1.6 | 12.9 | 0.00 | 0.10 | 0.00 | 86 | 1014.8 |
| 20260906043103 | 23 | 40 | 1.6 | 12.9 | 0.00 | 0.10 | 0.00 | 86 | 1015.1 |
| 20260906042601 | 23 | 30 | 3.2 | 12.9 | 0.00 | 0.10 | 0.00 | 86 | 1014.9 |
| 20260906042101 | 23 | 130 | 3.2 | 11.3 | 0.00 | 0.10 | 0.00 | 86 | 1014.9 |
| 20260906041603 | 23 | 76 | 0.0 | 12.9 | 0.00 | 0.10 | 0.00 | 86 | 1015.0 |
| 20260906041103 | 23 | 99 | 3.2 | 12.9 | 0.00 | 0.10 | 0.00 | 86 | 1014.9 |
| 20260906040603 | 23 | 0 | 4.8 | 12.9 | 0.00 | 0.10 | 0.00 | 86 | 1014.7 |
| 20260906040139 | 23 | 128 | 3.2 | 11.3 | 0.00 | 0.10 | 0.00 | 86 | 1014.6 |
| 20260906035603 | 23 | 61 | 1.6 | 6.4 | 0.00 | 0.10 | 0.10 | 86 | 1014.7 |
| 20260906035104 | 23 | 0 | 1.6 | 6.4 | 0.00 | 0.10 | 0.10 | 86 | 1014.7 |
| 20260906034607 | 23 | 71 | 1.6 | 9.7 | 0.00 | 0.10 | 0.10 | 86 | 1014.5 |
| 20260906034101 | 23 | 137 | 1.6 | 9.7 | 0.00 | 0.10 | 0.10 | 86 | 1014.5 |
| 20260906033601 | 23 | 0 | 1.6 | 9.7 | 0.00 | 0.10 | 0.10 | 86 | 1014.6 |
| 20260906033104 | 23 | 138 | 3.2 | 9.7 | 0.00 | 0.10 | 0.10 | 86 | 1014.6 |
| 20260906032603 | 23 | 126 | 1.6 | 12.9 | 0.00 | 0.10 | 0.10 | 85 | 1014.7 |
| 20260906032102 | 23 | 152 | 3.2 | 19.3 | 0.00 | 0.10 | 0.10 | 85 | 1014.6 |
| 20260906031607 | 23 | 125 | 3.2 | 19.3 | 0.00 | 0.10 | 0.10 | 85 | 1014.5 |
| 20260906031104 | 23 | 69 | 4.8 | 17.7 | 0.00 | 0.10 | 0.10 | 85 | 1014.3 |
| 20260906030605 | 23 | 90 | 4.8 | 12.9 | 0.00 | 0.10 | 0.10 | 85 | 1014.4 |
| 20260906030111 | 23 | 0 | 4.8 | 12.9 | 0.00 | 0.10 | 0.10 | 85 | 1014.4 |
| 20260906025601 | 23 | 147 | 4.8 | 11.3 | 0.00 | 0.10 | 0.10 | 85 | 1014.3 |
| 20260906025105 | 24 | 128 | 3.2 | 11.3 | 0.00 | 0.10 | 0.10 | 85 | 1014.2 |
| 20260906024609 | 24 | 140 | 3.2 | 12.9 | 0.00 | 0.10 | 0.10 | 85 | 1014.2 |
| 20260906024101 | 24 | 134 | 6.4 | 12.9 | 0.00 | 0.10 | 0.10 | 84 | 1014.3 |
| 20260906023603 | 24 | 130 | 3.2 | 14.5 | 0.00 | 0.10 | 0.10 | 85 | 1014.2 |
| 20260906023104 | 24 | 159 | 4.8 | 16.1 | 0.00 | 0.10 | 0.10 | 85 | 1014.3 |
| 20260906022601 | 24 | 133 | 6.4 | 19.3 | 0.00 | 0.10 | 0.10 | 85 | 1014.3 |
| 20260906022102 | 24 | 144 | 4.8 | 19.3 | 0.00 | 0.10 | 0.10 | 85 | 1014.1 |
| 20260906021620 | 24 | 136 | 6.4 | 12.9 | 0.00 | 0.10 | 0.10 | 85 | 1014.0 |
| 20260906021102 | 24 | 126 | 1.6 | 11.3 | 0.00 | 0.10 | 0.10 | 84 | 1014.0 |
| 20260906020602 | 25 | 126 | 3.2 | 12.9 | 0.00 | 0.10 | 0.10 | 84 | 1014.1 |
| 20260906020117 | 25 | 146 | 4.8 | 12.9 | 0.00 | 0.10 | 0.10 | 84 | 1014.1 |
| 20260906015601 | 25 | 131 | 3.2 | 14.5 | 0.00 | 0.10 | 0.10 | 84 | 1013.8 |
| 20260906015101 | 25 | 144 | 3.2 | 16.1 | 0.00 | 0.10 | 0.10 | 83 | 1013.7 |
| 20260906014627 | 25 | 20 | 8.0 | 16.1 | 0.00 | 0.10 | 0.10 | 83 | 1013.8 |
| 20260906014104 | 25 | 167 | 1.6 | 12.9 | 0.00 | 0.10 | 0.10 | 82 | 1013.8 |
| 20260906013601 | 25 | 137 | 1.6 | 12.9 | 0.00 | 0.10 | 0.10 | 82 | 1013.7 |
| 20260906013125 | 25 | 113 | 1.6 | 11.3 | 0.00 | 0.10 | 0.10 | 81 | 1013.4 |
| 20260906012604 | 24 | 148 | 1.6 | 8.0 | 0.00 | 0.10 | 0.10 | 81 | 1013.1 |
| 20260906012101 | 24 | 0 | 0.0 | 0.0 | 0.00 | 0.10 | 0.10 | 80 | 1013.0 |
| 20260906011624 | 24 | 0 | 0.0 | 0.0 | 0.00 | 0.10 | 0.10 | 80 | 1012.9 |
| 20260906011105 | 24 | 0 | 0.0 | 0.0 | 0.00 | 0.10 | 0.10 | 79 | 1013.1 |
| 20260906010601 | 24 | 0 | 0.0 | 0.0 | 0.00 | 0.10 | 0.10 | 79 | 1013.1 |
| 20260906010127 | 24 | 0 | 0.0 | 0.0 | 0.00 | 0.10 | 0.10 | 79 | 1013.0 |
| 20260906005601 | 24 | 0 | 0.0 | 0.0 | 0.00 | 0.10 | 0.10 | 78 | 1012.8 |
| 20260906005101 | 25 | 0 | 0.0 | 0.0 | 0.00 | 0.10 | 0.10 | 78 | 1012.9 |
| 20260906004623 | 25 | 0 | 0.0 | 0.0 | 0.00 | 0.10 | 0.10 | 78 | 1013.0 |
| 20260906004102 | 25 | 0 | 0.0 | 0.0 | 0.00 | 0.10 | 0.10 | 78 | 1013.0 |
| 20260906003603 | 25 | 0 | 0.0 | 0.0 | 0.00 | 0.10 | 0.10 | 77 | 1012.8 |
| 20260906003121 | 25 | 0 | 0.0 | 0.0 | 0.00 | 0.10 | 0.10 | 76 | 1012.6 |
| 20260906002601 | 25 | 0 | 0.0 | 0.0 | 0.00 | 0.10 | 0.10 | 76 | 1012.5 |
| 20260906002101 | 25 | 0 | 0.0 | 0.0 | 0.00 | 0.10 | 0.10 | 76 | 1012.4 |
| 20260906001624 | 25 | 0 | 0.0 | 0.0 | 0.00 | 0.10 | 0.10 | 76 | 1012.4 |
| 20260906001059 | 25 | 0 | 0.0 | 3.2 | 0.00 | 0.10 | 0.10 | 75 | 1012.4 |
| 20260906000601 | 25 | 0 | 0.0 | 4.8 | 0.00 | 0.10 | 0.10 | 75 | 1012.4 |
| 20260906000115 | 25 | 352 | 0.0 | 6.4 | 0.00 | 0.10 | 0.10 | 74 | 1012.4 |
| 20260905235606 | 26 | 352 | 3.2 | 6.4 | 0.00 | 0.10 | 0.10 | 73 | 1012.4 |
| 20260905235105 | 26 | 360 | 0.0 | 4.8 | 0.00 | 0.10 | 0.10 | 72 | 1012.5 |
| 20260905234613 | 26 | 5 | 1.6 | 4.8 | 0.00 | 0.10 | 0.10 | 70 | 1012.5 |
| 20260905234105 | 26 | 123 | 0.0 | 4.8 | 0.00 | 0.10 | 0.10 | 70 | 1012.5 |
| 20260905233603 | 26 | 0 | 0.0 | 4.8 | 0.00 | 0.10 | 0.10 | 71 | 1012.5 |
| 20260905233118 | 26 | 123 | 1.6 | 6.4 | 0.00 | 0.10 | 0.10 | 70 | 1012.5 |
| 20260905232601 | 26 | 128 | 1.6 | 6.4 | 0.00 | 0.10 | 0.10 | 70 | 1012.8 |
| 20260905232101 | 26 | 105 | 1.6 | 8.0 | 0.00 | 0.10 | 0.10 | 70 | 1013.0 |
| 20260905231608 | 26 | 62 | 1.6 | 8.0 | 0.00 | 0.10 | 0.10 | 70 | 1012.7 |
| 20260905231100 | 26 | 327 | 3.2 | 8.0 | 0.00 | 0.10 | 0.10 | 70 | 1012.7 |
| 20260905230559 | 26 | 101 | 1.6 | 11.3 | 0.00 | 0.10 | 0.10 | 69 | 1012.9 |
| 20260905230111 | 26 | 41 | 4.8 | 11.3 | 0.00 | 0.10 | 0.10 | 69 | 1012.8 |
| 20260905225559 | 27 | 21 | 3.2 | 12.9 | 0.00 | 0.10 | 0.10 | 71 | 1013.1 |
| 20260905225101 | 27 | 23 | 3.2 | 12.9 | 0.00 | 0.10 | 0.10 | 71 | 1012.9 |
| 20260905224613 | 27 | 59 | 3.2 | 14.5 | 0.00 | 0.10 | 0.10 | 70 | 1012.9 |
| 20260905224057 | 27 | 30 | 4.8 | 16.1 | 0.00 | 0.10 | 0.10 | 70 | 1012.6 |
| 20260905223559 | 28 | 29 | 4.8 | 16.1 | 0.00 | 0.10 | 0.10 | 69 | 1012.4 |
| 20260905223105 | 28 | 84 | 6.4 | 20.9 | 0.00 | 0.10 | 0.10 | 67 | 1012.2 |
| 20260905222600 | 29 | 123 | 6.4 | 20.9 | 0.00 | 0.10 | 0.10 | 65 | 1012.1 |
| 20260905222059 | 31 | 5 | 8.0 | 20.9 | 0.00 | 0.10 | 0.10 | 62 | 1012.1 |
| 20260905221603 | 32 | 311 | 8.0 | 17.7 | 0.00 | 0.10 | 0.10 | 63 | 1011.9 |
| 20260905221100 | 32 | 312 | 9.7 | 20.9 | 0.00 | 0.10 | 0.10 | 63 | 1011.6 |
| 20260905220559 | 32 | 323 | 14.5 | 20.9 | 0.00 | 0.10 | 0.10 | 63 | 1011.6 |
| 20260905220105 | 32 | 313 | 8.0 | 19.3 | 0.00 | 0.10 | 0.10 | 63 | 1011.9 |
| 20260905215559 | 32 | 294 | 9.7 | 17.7 | 0.00 | 0.10 | 0.10 | 62 | 1012.2 |
| 20260905215059 | 32 | 286 | 6.4 | 14.5 | 0.00 | 0.10 | 0.10 | 62 | 1012.0 |
| 20260905214608 | 32 | 287 | 6.4 | 16.1 | 0.00 | 0.10 | 0.10 | 63 | 1012.0 |
| 20260905214100 | 32 | 319 | 8.0 | 16.1 | 0.00 | 0.10 | 0.10 | 63 | 1011.8 |
| 20260905213559 | 32 | 308 | 4.8 | 17.7 | 0.00 | 0.10 | 0.10 | 63 | 1011.4 |
| 20260905213110 | 32 | 325 | 8.0 | 17.7 | 0.00 | 0.10 | 0.10 | 64 | 1011.6 |
| 20260905212559 | 31 | 318 | 6.4 | 16.1 | 0.00 | 0.10 | 0.10 | 65 | 1012.0 |
| 20260905212059 | 31 | 322 | 6.4 | 14.5 | 0.00 | 0.10 | 0.10 | 65 | 1012.0 |
| 20260905211601 | 31 | 329 | 4.8 | 14.5 | 0.00 | 0.10 | 0.10 | 64 | 1011.8 |
| 20260905211059 | 31 | 311 | 6.4 | 9.7 | 0.00 | 0.10 | 0.10 | 64 | 1011.8 |
| 20260905210559 | 31 | 352 | 4.8 | 17.7 | 0.00 | 0.10 | 0.10 | 64 | 1011.9 |
| 20260905210116 | 31 | 352 | 6.4 | 17.7 | 0.00 | 0.10 | 0.10 | 63 | 1012.1 |
| 20260905205559 | 32 | 311 | 8.0 | 12.9 | 0.00 | 0.10 | 0.10 | 63 | 1012.1 |
| 20260905205101 | 32 | 331 | 6.4 | 14.5 | 0.00 | 0.10 | 0.10 | 63 | 1012.2 |
| 20260905204605 | 31 | 321 | 4.8 | 14.5 | 0.00 | 0.10 | 0.10 | 65 | 1012.2 |
| 20260905204059 | 31 | 326 | 4.8 | 19.3 | 0.00 | 0.10 | 0.10 | 63 | 1012.3 |
| 20260905203559 | 31 | 308 | 4.8 | 19.3 | 0.00 | 0.10 | 0.10 | 63 | 1012.3 |
| 20260905203108 | 31 | 310 | 8.0 | 16.1 | 0.00 | 0.10 | 0.10 | 62 | 1012.4 |
| 20260905202558 | 32 | 296 | 8.0 | 16.1 | 0.00 | 0.10 | 0.10 | 61 | 1012.3 |
| 20260905202058 | 32 | 333 | 9.7 | 16.1 | 0.00 | 0.10 | 0.10 | 60 | 1012.4 |
| 20260905201610 | 33 | 329 | 4.8 | 17.7 | 0.00 | 0.10 | 0.10 | 60 | 1012.4 |
| 20260905201101 | 33 | 328 | 6.4 | 19.3 | 0.00 | 0.10 | 0.10 | 60 | 1012.5 |
| 20260905200601 | 33 | 304 | 11.3 | 19.3 | 0.00 | 0.10 | 0.10 | 59 | 1012.5 |
| 20260905200147 | 33 | 339 | 4.8 | 17.7 | 0.00 | 0.10 | 0.10 | 60 | 1012.5 |
| 20260905195603 | 33 | 19 | 9.7 | 17.7 | 0.00 | 0.10 | 0.10 | 60 | 1012.5 |
| 20260905195101 | 33 | 334 | 8.0 | 17.7 | 0.00 | 0.10 | 0.10 | 61 | 1012.4 |
| 20260905194623 | 32 | 262 | 6.4 | 14.5 | 0.00 | 0.10 | 0.10 | 60 | 1012.5 |
| 20260905194101 | 33 | 307 | 6.4 | 17.7 | 0.00 | 0.10 | 0.10 | 59 | 1012.6 |
| 20260905193603 | 33 | 312 | 3.2 | 17.7 | 0.00 | 0.10 | 0.10 | 60 | 1012.5 |
| 20260905193106 | 32 | 319 | 4.8 | 19.3 | 0.00 | 0.10 | 0.10 | 60 | 1012.7 |
| 20260905192602 | 32 | 332 | 8.0 | 19.3 | 0.00 | 0.10 | 0.10 | 60 | 1012.8 |
| 20260905192059 | 33 | 291 | 9.7 | 19.3 | 0.00 | 0.10 | 0.10 | 59 | 1012.8 |
| 20260905191605 | 33 | 263 | 4.8 | 16.1 | 0.00 | 0.10 | 0.10 | 58 | 1012.9 |
| 20260905191104 | 32 | 315 | 8.0 | 16.1 | 0.00 | 0.10 | 0.10 | 59 | 1012.9 |
| 20260905190602 | 32 | 308 | 4.8 | 11.3 | 0.00 | 0.10 | 0.10 | 58 | 1012.9 |
| 20260905190107 | 32 | 286 | 3.2 | 12.9 | 0.00 | 0.10 | 0.10 | 58 | 1013.1 |
| 20260905185600 | 32 | 286 | 4.8 | 16.1 | 0.00 | 0.10 | 0.10 | 58 | 1013.1 |
| 20260905185102 | 32 | 300 | 3.2 | 16.1 | 0.00 | 0.10 | 0.10 | 60 | 1013.2 |
| 20260905184612 | 32 | 301 | 9.7 | 16.1 | 0.00 | 0.10 | 0.10 | 59 | 1013.2 |
| 20260905184102 | 32 | 290 | 6.4 | 16.1 | 0.00 | 0.10 | 0.10 | 60 | 1013.3 |
| 20260905183603 | 32 | 296 | 6.4 | 17.7 | 0.00 | 0.10 | 0.10 | 60 | 1013.5 |
| 20260905183112 | 32 | 309 | 4.8 | 17.7 | 0.00 | 0.10 | 0.10 | 59 | 1013.5 |
| 20260905182601 | 32 | 252 | 6.4 | 14.5 | 0.00 | 0.10 | 0.10 | 58 | 1013.6 |
| 20260905182101 | 32 | 314 | 8.0 | 14.5 | 0.00 | 0.10 | 0.10 | 58 | 1013.7 |
| 20260905181607 | 32 | 0 | 3.2 | 12.9 | 0.00 | 0.10 | 0.10 | 59 | 1013.6 |
| 20260905181102 | 32 | 310 | 4.8 | 12.9 | 0.00 | 0.10 | 0.10 | 60 | 1013.7 |
| 20260905180601 | 32 | 291 | 1.6 | 9.7 | 0.00 | 0.10 | 0.10 | 58 | 1013.6 |
| 20260905180108 | 32 | 306 | 1.6 | 12.9 | 0.00 | 0.10 | 0.10 | 59 | 1013.7 |
| 20260905175601 | 32 | 152 | 1.6 | 12.9 | 0.00 | 0.10 | 0.10 | 60 | 1013.7 |
| 20260905175101 | 31 | 277 | 4.8 | 12.9 | 0.00 | 0.10 | 0.10 | 60 | 1013.7 |
| 20260905174607 | 31 | 288 | 1.6 | 12.9 | 0.00 | 0.10 | 0.10 | 60 | 1013.8 |
| 20260905174101 | 31 | 300 | 3.2 | 11.3 | 0.00 | 0.10 | 0.10 | 61 | 1013.9 |
| 20260905173601 | 31 | 262 | 1.6 | 8.0 | 0.00 | 0.10 | 0.10 | 62 | 1014.0 |
| 20260905173105 | 30 | 125 | 3.2 | 8.0 | 0.00 | 0.10 | 0.10 | 63 | 1014.1 |
| 20260905172601 | 30 | 225 | 1.6 | 12.9 | 0.00 | 0.10 | 0.10 | 61 | 1013.9 |
| 20260905172102 | 30 | 268 | 3.2 | 12.9 | 0.00 | 0.10 | 0.10 | 63 | 1014.1 |
| 20260905171607 | 30 | 171 | 4.8 | 12.9 | 0.00 | 0.10 | 0.10 | 62 | 1014.1 |
| 20260905171117 | 30 | 169 | 3.2 | 12.9 | 0.00 | 0.10 | 0.10 | 64 | 1014.2 |
| 20260905170601 | 29 | 197 | 3.2 | 12.9 | 0.00 | 0.10 | 0.10 | 63 | 1014.3 |
| 20260905170109 | 29 | 144 | 1.6 | 14.5 | 0.00 | 0.10 | 0.10 | 64 | 1014.5 |
| 20260905165600 | 29 | 284 | 1.6 | 14.5 | 0.00 | 0.10 | 0.10 | 64 | 1014.5 |
| 20260905165105 | 28 | 165 | 3.2 | 9.7 | 0.00 | 0.10 | 0.10 | 65 | 1014.6 |
| 20260905164606 | 28 | 161 | 1.6 | 9.7 | 0.10 | 0.10 | 0.10 | 69 | 1014.5 |
| 20260905164101 | 28 | 153 | 3.2 | 11.3 | 0.10 | 0.10 | 0.10 | 70 | 1014.6 |
| 20260905163600 | 27 | 163 | 4.8 | 11.3 | 0.10 | 0.10 | 0.10 | 74 | 1014.7 |
| 20260905163109 | 26 | 178 | 1.6 | 11.3 | 0.10 | 0.10 | 0.10 | 79 | 1014.9 |
| 20260905162601 | 25 | 104 | 0.0 | 6.4 | 0.10 | 0.10 | 0.10 | 81 | 1014.7 |
| 20260905162102 | 25 | 93 | 0.0 | 4.8 | 0.10 | 0.10 | 0.10 | 81 | 1014.9 |
| 20260905161615 | 25 | 82 | 0.0 | 4.8 | 0.10 | 0.10 | 0.10 | 83 | 1014.9 |
| 20260905161101 | 24 | 78 | 0.0 | 4.8 | 0.10 | 0.10 | 0.10 | 81 | 1015.1 |
| 20260905160603 | 25 | 350 | 1.6 | 4.8 | 0.10 | 0.10 | 0.10 | 79 | 1015.0 |
| 20260905160110 | 25 | 344 | 1.6 | 4.8 | 0.10 | 0.10 | 0.10 | 74 | 1015.1 |
| 20260905155600 | 26 | 344 | 0.0 | 4.8 | 0.10 | 0.10 | 0.10 | 70 | 1015.2 |
| 20260905155100 | 27 | 344 | 1.6 | 14.5 | 0.10 | 0.10 | 0.10 | 66 | 1015.4 |
| 20260905154606 | 28 | 344 | 1.6 | 14.5 | 0.00 | 0.00 | 0.00 | 64 | 1015.3 |
| 20260905154103 | 28 | 183 | 3.2 | 11.3 | 0.00 | 0.00 | 0.00 | 63 | 1015.1 |
| 20260905153600 | 28 | 277 | 4.8 | 11.3 | 0.00 | 0.00 | 0.00 | 63 | 1015.1 |
| 20260905153106 | 28 | 229 | 3.2 | 11.3 | 0.00 | 0.00 | 0.00 | 66 | 1014.7 |
| 20260905152601 | 27 | 177 | 3.2 | 11.3 | 0.00 | 0.00 | 0.00 | 66 | 1015.0 |
| 20260905152101 | 27 | 166 | 3.2 | 12.9 | 0.00 | 0.00 | 0.00 | 65 | 1015.1 |
| 20260905151610 | 27 | 164 | 3.2 | 12.9 | 0.00 | 0.00 | 0.00 | 67 | 1015.0 |
| 20260905151101 | 27 | 163 | 4.8 | 16.1 | 0.00 | 0.00 | 0.00 | 67 | 1015.2 |
| 20260905150600 | 27 | 131 | 4.8 | 16.1 | 0.00 | 0.00 | 0.00 | 67 | 1015.0 |
| 20260905150106 | 26 | 175 | 3.2 | 14.5 | 0.00 | 0.00 | 0.00 | 68 | 1015.0 |
| 20260905145602 | 26 | 284 | 4.8 | 16.1 | 0.00 | 0.00 | 0.00 | 68 | 1014.9 |
| 20260905145100 | 26 | 135 | 6.4 | 16.1 | 0.00 | 0.00 | 0.00 | 68 | 1015.0 |
| 20260905144603 | 26 | 159 | 3.2 | 14.5 | 0.00 | 0.00 | 0.00 | 69 | 1015.0 |
| 20260905144100 | 26 | 139 | 4.8 | 12.9 | 0.00 | 0.00 | 0.00 | 70 | 1015.0 |
| 20260905143601 | 26 | 145 | 4.8 | 12.9 | 0.00 | 0.00 | 0.00 | 70 | 1015.1 |
| 20260905143105 | 25 | 168 | 4.8 | 14.5 | 0.00 | 0.00 | 0.00 | 71 | 1015.0 |
| 20260905142603 | 25 | 163 | 3.2 | 16.1 | 0.00 | 0.00 | 0.00 | 72 | 1015.0 |
| 20260905142100 | 25 | 169 | 4.8 | 16.1 | 0.00 | 0.00 | 0.00 | 72 | 1014.9 |
| 20260905141603 | 25 | 157 | 4.8 | 14.5 | 0.00 | 0.00 | 0.00 | 71 | 1015.1 |
| 20260905141100 | 25 | 161 | 6.4 | 16.1 | 0.00 | 0.00 | 0.00 | 71 | 1015.1 |
| 20260905140602 | 25 | 137 | 6.4 | 16.1 | 0.00 | 0.00 | 0.00 | 71 | 1015.3 |
| 20260905140105 | 25 | 169 | 3.2 | 14.5 | 0.00 | 0.00 | 0.00 | 72 | 1015.3 |
| 20260905135558 | 25 | 142 | 3.2 | 16.1 | 0.00 | 0.00 | 0.00 | 73 | 1015.1 |
| 20260905135101 | 24 | 117 | 4.8 | 16.1 | 0.00 | 0.00 | 0.00 | 73 | 1015.3 |
| 20260905134620 | 24 | 75 | 4.8 | 14.5 | 0.00 | 0.00 | 0.00 | 74 | 1015.3 |
| 20260905134101 | 24 | 155 | 3.2 | 14.5 | 0.00 | 0.00 | 0.00 | 74 | 1015.4 |
| 20260905133600 | 23 | 139 | 3.2 | 17.7 | 0.00 | 0.00 | 0.00 | 75 | 1015.4 |
| 20260905133106 | 23 | 180 | 4.8 | 17.7 | 0.00 | 0.00 | 0.00 | 75 | 1015.4 |
| 20260905132602 | 23 | 150 | 3.2 | 11.3 | 0.00 | 0.00 | 0.00 | 76 | 1015.5 |
| 20260905132101 | 23 | 167 | 4.8 | 9.7 | 0.00 | 0.00 | 0.00 | 75 | 1015.5 |
| 20260905131611 | 23 | 146 | 0.0 | 12.9 | 0.00 | 0.00 | 0.00 | 77 | 1015.5 |
| 20260905131100 | 23 | 125 | 3.2 | 12.9 | 0.00 | 0.00 | 0.00 | 77 | 1015.7 |
| 20260905130602 | 23 | 174 | 3.2 | 11.3 | 0.00 | 0.00 | 0.00 | 76 | 1015.6 |
| 20260905130110 | 23 | 169 | 4.8 | 11.3 | 0.00 | 0.00 | 0.00 | 76 | 1015.4 |
| 20260905125604 | 22 | 136 | 3.2 | 17.7 | 0.00 | 0.00 | 0.00 | 77 | 1015.4 |
| 20260905125100 | 22 | 211 | 4.8 | 17.7 | 0.00 | 0.00 | 0.00 | 77 | 1015.4 |
| 20260905124613 | 22 | 160 | 3.2 | 9.7 | 0.00 | 0.00 | 0.00 | 77 | 1015.2 |
| 20260905124104 | 22 | 166 | 3.2 | 12.9 | 0.00 | 0.00 | 0.00 | 77 | 1015.1 |
| 20260905123602 | 22 | 168 | 4.8 | 14.5 | 0.00 | 0.00 | 0.00 | 77 | 1015.2 |
| 20260905123109 | 22 | 162 | 1.6 | 14.5 | 0.00 | 0.00 | 0.00 | 78 | 1015.2 |
| 20260905122603 | 22 | 88 | 1.6 | 14.5 | 0.00 | 0.00 | 0.00 | 78 | 1015.2 |
| 20260905122101 | 22 | 0 | 1.6 | 14.5 | 0.00 | 0.00 | 0.00 | 79 | 1015.1 |
| 20260905121605 | 22 | 126 | 4.8 | 14.5 | 0.00 | 0.00 | 0.00 | 79 | 1015.0 |
| 20260905121100 | 21 | 169 | 3.2 | 12.9 | 0.00 | 0.00 | 0.00 | 80 | 1015.1 |
| 20260905120601 | 21 | 127 | 4.8 | 16.1 | 0.00 | 0.00 | 0.00 | 80 | 1015.1 |
| 20260905120104 | 21 | 163 | 4.8 | 16.1 | 0.00 | 0.00 | 0.00 | 80 | 1015.2 |
| 20260905115600 | 21 | 129 | 4.8 | 12.9 | 0.00 | 0.00 | 0.00 | 80 | 1015.2 |
| 20260905115102 | 21 | 173 | 3.2 | 12.9 | 0.00 | 0.00 | 0.00 | 80 | 1015.1 |
| 20260905114612 | 21 | 120 | 4.8 | 12.9 | 0.00 | 0.00 | 0.00 | 80 | 1015.1 |
| 20260905114103 | 21 | 148 | 4.8 | 14.5 | 0.00 | 0.00 | 0.00 | 80 | 1015.2 |
| 20260905113601 | 21 | 101 | 3.2 | 14.5 | 0.00 | 0.00 | 0.00 | 80 | 1015.1 |
| 20260905113109 | 21 | 127 | 4.8 | 16.1 | 0.00 | 0.00 | 0.00 | 80 | 1015.1 |
| 20260905112604 | 21 | 133 | 3.2 | 16.1 | 0.00 | 0.00 | 0.00 | 80 | 1015.1 |
| 20260905112101 | 21 | 171 | 6.4 | 16.1 | 0.00 | 0.00 | 0.00 | 80 | 1015.2 |
| 20260905111615 | 21 | 119 | 4.8 | 16.1 | 0.00 | 0.00 | 0.00 | 80 | 1015.2 |
| 20260905111059 | 21 | 105 | 4.8 | 14.5 | 0.00 | 0.00 | 0.00 | 80 | 1015.1 |
| 20260905110604 | 21 | 177 | 4.8 | 12.9 | 0.00 | 0.00 | 0.00 | 80 | 1015.0 |
| 20260905110106 | 22 | 0 | 3.2 | 20.9 | 0.00 | 0.00 | 0.00 | 80 | 1015.0 |
| 20260905105600 | 22 | 182 | 4.8 | 20.9 | 0.00 | 0.00 | 0.00 | 80 | 1015.0 |
| 20260905105059 | 22 | 129 | 8.0 | 19.3 | 0.00 | 0.00 | 0.00 | 80 | 1015.0 |
| 20260905104607 | 22 | 109 | 9.7 | 19.3 | 0.00 | 0.00 | 0.00 | 80 | 1015.1 |
| 20260905104100 | 22 | 192 | 8.0 | 20.9 | 0.00 | 0.00 | 0.00 | 80 | 1015.1 |
| 20260905103600 | 22 | 150 | 9.7 | 20.9 | 0.00 | 0.00 | 0.00 | 81 | 1015.0 |
| 20260905103104 | 22 | 120 | 9.7 | 27.4 | 0.00 | 0.00 | 0.00 | 82 | 1015.1 |
| 20260905102600 | 22 | 138 | 9.7 | 27.4 | 0.00 | 0.00 | 0.00 | 84 | 1015.2 |
| 20260905102103 | 22 | 88 | 12.9 | 27.4 | 0.00 | 0.00 | 0.00 | 85 | 1015.0 |
| 20260905101608 | 23 | 116 | 8.0 | 24.1 | 0.00 | 0.00 | 0.00 | 88 | 1014.9 |
| 20260905101101 | 23 | 106 | 11.3 | 20.9 | 0.00 | 0.00 | 0.00 | 88 | 1014.6 |
| 20260905100601 | 23 | 135 | 4.8 | 14.5 | 0.00 | 0.00 | 0.00 | 89 | 1014.4 |
| 20260905100108 | 23 | 0 | 0.0 | 0.0 | 0.00 | 0.00 | 0.00 | 89 | 1014.0 |
| 20260905095600 | 23 | 0 | 0.0 | 0.0 | 0.00 | 0.00 | 0.00 | 89 | 1013.9 |
| 20260905095102 | 23 | 0 | 0.0 | 0.0 | 0.00 | 0.00 | 0.00 | 89 | 1013.7 |
| 20260905094612 | 23 | 0 | 0.0 | 0.0 | 0.00 | 0.00 | 0.00 | 89 | 1013.9 |
| 20260905094100 | 23 | 0 | 0.0 | 0.0 | 0.00 | 0.00 | 0.00 | 89 | 1013.9 |
| 20260905093600 | 23 | 0 | 0.0 | 0.0 | 0.00 | 0.00 | 0.00 | 88 | 1013.7 |
| 20260905093124 | 23 | 0 | 0.0 | 0.0 | 0.00 | 0.00 | 0.00 | 88 | 1013.9 |
| 20260905092601 | 23 | 0 | 0.0 | 0.0 | 0.00 | 0.00 | 0.00 | 88 | 1013.8 |
| 20260905092100 | 23 | 0 | 0.0 | 0.0 | 0.00 | 0.00 | 0.00 | 88 | 1013.6 |
| 20260905091610 | 23 | 0 | 0.0 | 0.0 | 0.00 | 0.00 | 0.00 | 88 | 1013.7 |
| 20260905091101 | 23 | 0 | 0.0 | 0.0 | 0.00 | 0.00 | 0.00 | 88 | 1013.7 |
| 20260905090600 | 23 | 0 | 0.0 | 0.0 | 0.00 | 0.00 | 0.00 | 88 | 1013.7 |
| 20260905090105 | 23 | 0 | 0.0 | 0.0 | 0.00 | 0.00 | 0.00 | 88 | 1013.7 |
| 20260905085601 | 23 | 0 | 0.0 | 0.0 | 0.00 | 0.00 | 0.00 | 87 | 1013.7 |
| 20260905085104 | 23 | 0 | 0.0 | 0.0 | 0.00 | 0.00 | 0.00 | 87 | 1013.6 |
| 20260905084609 | 23 | 0 | 0.0 | 0.0 | 0.00 | 0.00 | 0.00 | 87 | 1013.8 |
| 20260905084100 | 23 | 0 | 0.0 | 0.0 | 0.00 | 0.00 | 0.00 | 87 | 1013.7 |
| 20260905083600 | 23 | 0 | 0.0 | 0.0 | 0.00 | 0.00 | 0.00 | 87 | 1013.8 |
| 20260905083110 | 23 | 0 | 0.0 | 0.0 | 0.00 | 0.00 | 0.00 | 87 | 1013.7 |
| 20260905082600 | 23 | 0 | 0.0 | 0.0 | 0.00 | 0.00 | 0.00 | 87 | 1013.7 |
| 20260905082100 | 24 | 0 | 0.0 | 0.0 | 0.00 | 0.00 | 0.00 | 86 | 1013.6 |
| 20260905081620 | 24 | 0 | 0.0 | 0.0 | 0.00 | 0.00 | 0.00 | 86 | 1013.6 |
| 20260905081100 | 24 | 0 | 0.0 | 0.0 | 0.00 | 0.00 | 0.00 | 86 | 1013.6 |
| 20260905080600 | 24 | 0 | 0.0 | 0.0 | 0.00 | 0.00 | 0.00 | 86 | 1013.5 |
| 20260905080112 | 24 | 0 | 0.0 | 0.0 | 0.00 | 0.00 | 0.00 | 86 | 1013.6 |
| 20260905075604 | 24 | 0 | 0.0 | 0.0 | 0.00 | 0.00 | 0.00 | 86 | 1013.6 |
| 20260905075100 | 24 | 0 | 0.0 | 0.0 | 0.00 | 0.00 | 0.00 | 86 | 1013.4 |
| 20260905074605 | 24 | 0 | 0.0 | 0.0 | 0.00 | 0.00 | 0.00 | 85 | 1013.3 |
| 20260905074101 | 24 | 0 | 0.0 | 0.0 | 0.00 | 0.00 | 0.00 | 85 | 1013.3 |
| 20260905073603 | 24 | 0 | 0.0 | 0.0 | 0.00 | 0.00 | 0.00 | 85 | 1013.1 |
| 20260905073104 | 24 | 0 | 0.0 | 0.0 | 0.00 | 0.00 | 0.00 | 85 | 1013.1 |
| 20260905072601 | 24 | 0 | 0.0 | 0.0 | 0.00 | 0.00 | 0.00 | 85 | 1013.0 |
| 20260905072100 | 24 | 0 | 0.0 | 0.0 | 0.00 | 0.00 | 0.00 | 85 | 1012.9 |
| 20260905071626 | 24 | 0 | 0.0 | 0.0 | 0.00 | 0.00 | 0.00 | 85 | 1012.8 |
| 20260905071102 | 24 | 0 | 0.0 | 0.0 | 0.00 | 0.00 | 0.00 | 85 | 1012.9 |
| 20260905070600 | 24 | 0 | 0.0 | 0.0 | 0.00 | 0.00 | 0.00 | 85 | 1013.0 |
| 20260905070109 | 24 | 0 | 0.0 | 0.0 | 0.00 | 0.00 | 0.00 | 85 | 1013.0 |
| 20260905065602 | 24 | 0 | 0.0 | 0.0 | 0.00 | 0.00 | 0.00 | 85 | 1013.1 |
| 20260905065059 | 24 | 0 | 0.0 | 0.0 | 0.00 | 0.00 | 0.00 | 85 | 1013.0 |
| 20260905064604 | 24 | 0 | 0.0 | 0.0 | 0.00 | 0.00 | 0.00 | 85 | 1013.1 |
| 20260905064101 | 24 | 0 | 0.0 | 0.0 | 0.00 | 0.00 | 0.00 | 84 | 1013.2 |
| 20260905063600 | 24 | 0 | 0.0 | 0.0 | 0.00 | 0.00 | 0.00 | 84 | 1013.3 |
| 20260905063118 | 24 | 0 | 0.0 | 0.0 | 0.00 | 0.00 | 0.00 | 84 | 1013.4 |
| 20260905062601 | 24 | 0 | 0.0 | 0.0 | 0.00 | 0.00 | 0.00 | 84 | 1013.3 |
| 20260905062100 | 24 | 0 | 0.0 | 0.0 | 0.00 | 0.00 | 0.00 | 84 | 1013.5 |
| 20260905061627 | 24 | 0 | 0.0 | 0.0 | 0.00 | 0.00 | 0.00 | 84 | 1013.7 |
| 20260905061059 | 24 | 0 | 0.0 | 0.0 | 0.00 | 0.00 | 0.00 | 84 | 1013.6 |
| 20260905060601 | 24 | 0 | 0.0 | 0.0 | 0.00 | 0.00 | 0.00 | 84 | 1013.7 |
| 20260905060107 | 25 | 0 | 0.0 | 0.0 | 0.00 | 0.00 | 0.00 | 83 | 1013.7 |
| 20260905055559 | 25 | 0 | 0.0 | 0.0 | 0.00 | 0.00 | 0.00 | 83 | 1013.8 |
| 20260905055100 | 25 | 0 | 0.0 | 0.0 | 0.00 | 0.00 | 0.00 | 83 | 1013.8 |
| 20260905054606 | 25 | 0 | 0.0 | 0.0 | 0.00 | 0.00 | 0.00 | 83 | 1013.9 |
| 20260905054100 | 25 | 0 | 0.0 | 0.0 | 0.00 | 0.00 | 0.00 | 83 | 1013.7 |
| 20260905053600 | 25 | 0 | 0.0 | 0.0 | 0.00 | 0.00 | 0.00 | 83 | 1013.7 |
| 20260905053103 | 25 | 0 | 0.0 | 0.0 | 0.00 | 0.00 | 0.00 | 83 | 1013.9 |
| 20260905052601 | 25 | 0 | 0.0 | 0.0 | 0.00 | 0.00 | 0.00 | 83 | 1014.0 |